Tracking 19847 objects as of 16-Sep-2019
HD Live streaming from Space Station
objects crossing your sky now

FENGYUN 1C DEB

Track FENGYUN 1C DEB now!
10-day predictions


NORAD ID: 33647
Int'l Code: 1999-025DEG
Perigee: 780.4 km
Apogee: 1,188.0 km
Inclination: 98.2 °
Period: 104.6 minutes
Semi major axis: 7355 km
RCS: 0.0163 m2 (small)
Launch date: May 10, 1999
Source: People's Republic of China (PRC)
Launch site: Taiyaun Space Center, China (TSC)

Note: This is SATELLITE DEBRIS
aabbcc
Your satellite tracking list
Your tracking list is empty




NASA's NSSDC Master Catalog

Two Line Element Set (TLE):
1 33647U 99025DEG 19257.09683523  .00000776  00000-0  62827-3 0  9996
2 33647  98.2362  13.7623 0277076 219.8333 138.2190 13.76296341587382
Source of the keplerian elements: AFSPC